Boscobel, WI

7:34 AM CST on February 13, 2016 (GMT -0600)
Boscobel

Weather History for KOVS - April, 2013

Change the Weather History Date:

Thursday, April 25, 2013

  Actual Average (KPDC) Record (KPDC)
Temperature  
Mean Temperature 44 °F -  
Max Temperature 53 °F 67 °F - (-1)
Min Temperature 35 °F 40 °F - (-1)
Degree Days  
Heating Degree Days 21    
Moisture  
Dew Point 29 °F    
Average Humidity 62    
Maximum Humidity 86    
Minimum Humidity 29    
Precipitation  
Precipitation 0.01 in - - ()
Sea Level Pressure  
Sea Level Pressure 30.18 in    
Wind  
Wind Speed 8 mph (West)    
Max Wind Speed 13 mph    
Max Gust Speed 21 mph    
Visibility 10 miles    
Events Rain    
Averages and records for this station are not official NWS values.
T = Trace of Precipitation, MM = Missing Value Source: NWS Daily Summary

Daily Weather History Graph

Daily Weather History Graph

Search for Another Location

Airport or City:

Trip Planner

Search our weather history database for the weather conditions in past years. The results will help you decide how hot, cold, wet, or windy it might be!

Date:

Astronomy

Apr. 25, 2013 Rise Set
Actual Time 6:04 AM CDT 7:57 PM CDT
Civil Twilight 5:33 AM CDT 8:28 PM CDT
Nautical Twilight 4:56 AM CDT 9:05 PM CDT
Astronomical Twilight 4:16 AM CDT 9:46 PM CDT
Moon 8:11 PM CDT (4/25) 5:47 AM CDT (4/25)
Length of Visible Light 14h 54m
Length of Day
13h 52m
Full, 100% of the Moon is Illuminated
Apr 25
Full
Apr 25
Full
May 2
Last Quarter
May 9
New
May 17
First Quarter

Hourly Weather History & Observations

Time (CDT) Temp. Windchill Dew Point Humidity Pressure Visibility Wind Dir Wind Speed Gust Speed Precip Events Conditions
12:44 AM 44.6 °F 39.7 °F 37.4 °F 76% 30.00 in 10.0 mi SW 9.2 mph 19.6 mph N/A   Mostly Cloudy
12:53 AM 44.1 °F 39.5 °F 37.0 °F 76% 30.02 in 10.0 mi WSW 8.1 mph - N/A   Overcast
1:13 AM 42.8 °F 37.0 °F 35.6 °F 76% 30.02 in 10.0 mi West 10.4 mph 20.7 mph N/A   Overcast
1:53 AM 41.0 °F 35.8 °F 33.1 °F 73% 30.04 in 10.0 mi West 8.1 mph - N/A   Mostly Cloudy
2:53 AM 39.9 °F 34.5 °F 32.0 °F 73% 30.05 in 10.0 mi West 8.1 mph - N/A   Overcast
3:13 AM 39.2 °F 34.2 °F 32.0 °F 75% 30.03 in 10.0 mi WSW 6.9 mph - N/A   Overcast
3:53 AM 39.9 °F 34.5 °F 33.1 °F 77% 30.06 in 10.0 mi West 8.1 mph - 0.00 in Rain Light Rain
4:53 AM 37.9 °F 33.5 °F 34.0 °F 86% 30.08 in 10.0 mi West 5.8 mph - 0.01 in Rain Light Rain
6:22 AM 37.4 °F 29.3 °F 32.0 °F 81% 30.10 in 10.0 mi West 12.7 mph 18.4 mph N/A   Overcast
6:53 AM 37.0 °F 29.8 °F 30.9 °F 79% 30.14 in 10.0 mi West 10.4 mph - N/A   Overcast
7:53 AM 37.0 °F 31.0 °F 30.0 °F 76% 30.18 in 10.0 mi West 8.1 mph - N/A   Overcast
8:53 AM 37.9 °F 31.5 °F 30.0 °F 73% 30.21 in 10.0 mi WNW 9.2 mph - N/A   Overcast
9:53 AM 39.0 °F 33.4 °F 28.9 °F 67% 30.24 in 10.0 mi WNW 8.1 mph - N/A   Overcast
10:53 AM 39.9 °F 34.5 °F 30.0 °F 68% 30.26 in 10.0 mi WNW 8.1 mph - N/A   Overcast
11:53 AM 43.0 °F 39.5 °F 30.0 °F 60% 30.27 in 10.0 mi WNW 5.8 mph - N/A   Overcast
12:29 PM 44.6 °F 40.2 °F 28.4 °F 53% 30.26 in 10.0 mi WNW 8.1 mph - N/A   Overcast
12:53 PM 45.0 °F 39.7 °F 28.9 °F 53% 30.28 in 10.0 mi West 10.4 mph - N/A   Overcast
1:53 PM 48.0 °F - 28.9 °F 48% 30.27 in 10.0 mi West 5.8 mph - N/A   Partly Cloudy
2:53 PM 50.0 °F - 28.0 °F 43% 30.27 in 10.0 mi West 5.8 mph - N/A   Clear
3:53 PM 51.1 °F - 28.0 °F 41% 30.25 in 10.0 mi Variable 5.8 mph - N/A   Clear
4:53 PM 52.0 °F - 23.0 °F 32% 30.25 in 10.0 mi SW 8.1 mph - N/A   Clear
5:53 PM 53.1 °F - 21.0 °F 29% 30.25 in 10.0 mi West 8.1 mph - N/A   Clear
6:53 PM 52.0 °F - 21.0 °F 30% 30.23 in 10.0 mi Variable 5.8 mph - N/A   Clear
7:53 PM 48.9 °F - 23.0 °F 36% 30.23 in 10.0 mi South 3.5 mph - N/A   Clear
8:53 PM 41.0 °F - 25.0 °F 53% 30.25 in 10.0 mi Calm Calm - N/A   Clear
9:53 PM 37.9 °F - 26.1 °F 62% 30.28 in 10.0 mi Calm Calm - N/A   Clear
10:53 PM 35.1 °F 32.2 °F 27.0 °F 72% 30.27 in 10.0 mi NNE 3.5 mph - N/A   Clear
11:53 PM 35.1 °F - 28.9 °F 78% 30.26 in 10.0 mi Calm Calm - N/A   Clear